Voltar ao catálogo

CZ-4C DEB

AtivoLEO
NORAD 36417·DEBRIS·🇨🇳 China

Lançado Mar 5, 2010 de Jiuquan Satellite Launch Center

Loading…

Próximas Passagens (próximas 24 horas)

TLE

AtualizadoSource: Space-Track

Época: Sep 14, 2026, 15:07 UTC

1 36417U 10009E   26257.63047611  .00000148  00000-0  16319-3 0  9997
2 36417  63.3633 128.0935 0541484  21.5087   1.9365 13.46495330811804

Acompanhe CZ-4C DEB em tempo real com AllMySat

Download on the App Store